183P/Korlevic-Juric (2017)

Japanese version
Home page
Updated on July 30, 2018

---------------------------------------------------------------------

* Profile

* Pictures

* Orbital Elements

Epoch 2017 Nov. 23.0 TT = JDT 2458080.5
T 2017 Nov. 11.30895 TT                                 MPCW
q   3.8723572            (2000.0)            P               Q
n   0.10364350     Peri.  161.25643     -0.97303251     -0.22833221
a   4.4885701      Node     5.84579     +0.14813296     -0.72735650
e   0.1372849      Incl.   18.75257     +0.17681729     -0.64716066
P   9.51
From 314 observations 1989 Apr. 7-2018 Apr. 23, mean residual 0".6.

* Magnitudes Graph

        m1 = 4.0 + 5 log d + 20 log r

---------------------------------------------------------------------

The orbital elements are published on M.P.E.C. 2018-H105.
The magnitudes graphs are made with Comet for Windows.

---------------------------------------------------------------------

Copyright(C) Seiichi Yoshida (comet@aerith.net). All rights reserved.